Bartlesville, OK

3:28 AM CDT on May 23, 2018 (GMT -0500)
Bartlesville Municipal

Weather History for KBVO - November, 2013

Change the Weather History Date:

Monday, November 25, 2013

  Actual Average Record
Temperature  
Mean Temperature 32 °F -  
Max Temperature 37 °F 56 °F 80 °F (1965)
Min Temperature 28 °F 36 °F 12 °F (1950)
Degree Days  
Heating Degree Days 32    
Moisture  
Dew Point 25 °F    
Average Humidity 70    
Maximum Humidity 85    
Minimum Humidity 59    
Precipitation  
Precipitation 0.02 in - - ()
Sea Level Pressure  
Sea Level Pressure 30.27 in    
Wind  
Wind Speed 3 mph (SSW)    
Max Wind Speed 7 mph    
Max Gust Speed -    
Visibility 10 miles    
Events Snow    
Averages and records for this station are not official NWS values.
T = Trace of Precipitation, MM = Missing Value Source: NWS Daily Summary

Daily Weather History Graph

Daily Weather History Graph

Search for Another Location

Airport or City:

Astronomy

Nov. 25, 2013 Rise Set
Actual Time 7:12 AM CST 5:09 PM CST
Civil Twilight 6:44 AM CST 5:37 PM CST
Nautical Twilight 6:12 AM CST 6:09 PM CST
Astronomical Twilight 5:41 AM CST 6:40 PM CST
Moon No Moon Rise 12:36 PM CST (11/25)
Length of Visible Light 10h 53m
Length of Day
9h 56m
Waning Gibbous, 51% of the Moon is Illuminated
Nov 25
Waning Gibbous
Nov 25
Last Quarter
Dec 2
New
Dec 9
First Quarter
Dec 17
Full

Hourly Weather History & Observations

Time (CST) Temp. Windchill Dew Point Humidity Pressure Visibility Wind Dir Wind Speed Gust Speed Precip Events Conditions
12:53 AM 30.9 °F - 18.0 °F 59% 30.35 in 10.0 mi Calm Calm - N/A   Overcast
1:53 AM 30.9 °F 27.5 °F 18.0 °F 59% 30.34 in 10.0 mi SSE 3.5 mph - N/A   Overcast
2:53 AM 30.9 °F 26.2 °F 18.0 °F 59% 30.33 in 10.0 mi SSE 4.6 mph - N/A   Overcast
3:53 AM 30.9 °F 26.2 °F 18.0 °F 59% 30.32 in 10.0 mi South 4.6 mph - N/A   Overcast
4:53 AM 30.0 °F 23.2 °F 19.9 °F 66% 30.33 in 5.0 mi South 6.9 mph - 0.00 in Snow Light Snow
5:53 AM 28.0 °F 21.7 °F 24.1 °F 85% 30.30 in 10.0 mi South 5.8 mph - 0.00 in   Overcast
6:53 AM 28.9 °F 22.8 °F 24.1 °F 82% 30.29 in 10.0 mi South 5.8 mph - N/A   Overcast
7:53 AM 30.0 °F 25.2 °F 24.1 °F 79% 30.30 in 10.0 mi SSE 4.6 mph - N/A   Overcast
8:53 AM 30.9 °F 24.3 °F 25.0 °F 79% 30.30 in 10.0 mi South 6.9 mph - N/A   Overcast
9:53 AM 32.0 °F 25.6 °F 25.0 °F 75% 30.32 in 10.0 mi South 6.9 mph - 0.01 in   Overcast
10:53 AM 35.1 °F 30.1 °F 26.1 °F 70% 30.31 in 10.0 mi South 5.8 mph - 0.01 in   Overcast
11:53 AM 37.0 °F 32.4 °F 27.0 °F 67% 30.28 in 10.0 mi SSW 5.8 mph - N/A   Overcast
12:53 PM 36.0 °F 33.3 °F 26.1 °F 67% 30.26 in 10.0 mi Variable 3.5 mph - N/A   Overcast
1:53 PM 37.9 °F 33.5 °F 27.0 °F 65% 30.24 in 10.0 mi SSW 5.8 mph - N/A   Overcast
2:53 PM 37.0 °F 34.5 °F 26.1 °F 65% 30.22 in 10.0 mi WNW 3.5 mph - N/A   Overcast
3:53 PM 37.0 °F - 27.0 °F 67% 30.24 in 10.0 mi Calm Calm - N/A   Overcast
4:18 PM 37.4 °F - 26.6 °F 65% 30.23 in 10.0 mi Calm Calm - N/A   Overcast
4:38 PM 37.4 °F - 26.6 °F 65% 30.24 in 10.0 mi Calm Calm - N/A   Overcast
4:48 PM 37.4 °F 33.8 °F 28.4 °F 70% 30.24 in 10.0 mi West 4.6 mph - N/A   Overcast
4:53 PM 37.0 °F 33.3 °F 28.0 °F 70% 30.25 in 10.0 mi West 4.6 mph - N/A   Overcast
5:53 PM 36.0 °F - 28.9 °F 76% 30.25 in 10.0 mi Calm Calm - N/A   Overcast
6:53 PM 36.0 °F 33.3 °F 28.9 °F 76% 30.25 in 10.0 mi West 3.5 mph - N/A   Overcast
7:53 PM 36.0 °F - 28.9 °F 76% 30.25 in 10.0 mi Calm Calm - N/A   Overcast
8:53 PM 37.0 °F - 27.0 °F 67% 30.24 in 10.0 mi Calm Calm - N/A   Overcast
9:53 PM 37.0 °F - 28.0 °F 70% 30.25 in 10.0 mi Calm Calm - N/A   Overcast
10:53 PM 37.0 °F - 28.0 °F 70% 30.24 in 10.0 mi Calm Calm - N/A   Overcast
11:53 PM 37.0 °F - 28.9 °F 73% 30.24 in 10.0 mi Calm Calm - N/A   Overcast